Orbital Elements at Epoch 2459200.5 (2020-Dec-17.0) TDB
Reference: JPL 15 (heliocentric ecliptic J2000)
Element | Value | Uncertainty (1-sigma) | Units |
e | .04983955692014443 | 4.2762e-08 | |
a | 2.702117192424048 | 1.8615e-08 | au |
q | 2.567444868807328 | 1.1504e-07 | au |
i | 1.274359950339914 | 5.049e-06 | deg |
node | 60.05443816391516 | 0.00026459 | deg |
peri | 52.75835389798013 | 0.0002721 | deg |
M | 117.3728436974279 | 6.3039e-05 | deg |
tp | 2458671.543663633384 (2019-Jul-07.04366363) | 0.00028315 | TDB |
period | 1622.387897347629 4.44 | 1.6765e-05 4.59e-08 | d yr |
n | .2218951464002834 | 2.293e-09 | deg/d |
Q | 2.836789516040767 | 1.9543e-08 | au |
|
| | Orbit Determination Parameters
Additional Information
|